Time,TemperatureF,DewpointF,PressureIn,WindDirection,WindDirectionDegrees,WindSpeedMPH,WindSpeedGustMPH,Humidity,HourlyPrecipIn,Conditions,Clouds,dailyrainin,SoftwareType,DateUTC
2013-10-17 00:04:00,46.0,45.0,29.79,SW,220,0.0,0.0,95,0.00,,,0.00,,2013-10-17 04:04:00,
2013-10-17 00:24:00,48.0,47.0,29.76,SW,220,0.0,0.0,96,0.00,,,0.00,,2013-10-17 04:24:00,
2013-10-17 00:43:00,48.0,47.0,29.76,SW,220,0.0,0.0,96,0.00,,,0.00,,2013-10-17 04:43:00,
2013-10-17 00:54:00,49.0,48.0,29.74,SW,224,0.0,0.0,96,0.00,,,0.00,,2013-10-17 04:54:00,
2013-10-17 01:02:00,49.0,48.0,29.75,SW,224,0.0,1.0,96,0.00,,,0.00,,2013-10-17 05:02:00,
2013-10-17 01:04:00,49.0,48.0,29.74,SW,224,0.0,0.0,96,0.00,,,0.00,,2013-10-17 05:04:00,
2013-10-17 01:23:00,49.0,48.0,29.75,SW,224,0.0,1.0,96,0.00,,,0.00,,2013-10-17 05:23:00,
2013-10-17 01:34:00,49.0,48.0,29.75,SW,224,0.0,1.0,96,0.00,,,0.00,,2013-10-17 05:34:00,
2013-10-17 01:42:00,49.0,48.0,29.75,SW,224,0.0,1.0,96,0.00,,,0.00,,2013-10-17 05:42:00,
2013-10-17 01:52:00,49.0,48.0,29.75,SW,224,0.0,1.0,96,0.00,,,0.00,,2013-10-17 05:52:00,
2013-10-17 13:22:00,68.0,56.0,29.62,SE,128,3.0,3.0,65,0.00,,,0.00,,2013-10-17 17:22:00,
2013-10-17 13:33:00,68.0,56.0,29.62,SE,128,3.0,3.0,65,0.00,,,0.00,,2013-10-17 17:33:00,
2013-10-17 13:42:00,68.0,56.0,29.62,SE,128,3.0,3.0,65,0.00,,,0.00,,2013-10-17 17:42:00,
2013-10-17 13:53:00,68.0,56.0,29.62,SE,128,3.0,3.0,65,0.00,,,0.00,,2013-10-17 17:53:00,
2013-10-17 14:12:00,66.0,52.0,29.61,SE,124,0.0,1.0,60,0.00,,,0.00,,2013-10-17 18:12:00,
2013-10-17 14:22:00,66.0,52.0,29.61,SE,124,0.0,1.0,60,0.00,,,0.00,,2013-10-17 18:22:00,
2013-10-17 14:32:00,66.0,52.0,29.61,SE,124,0.0,1.0,60,0.00,,,0.00,,2013-10-17 18:32:00,
2013-10-17 14:42:00,66.0,52.0,29.61,SE,124,0.0,1.0,60,0.00,,,0.00,,2013-10-17 18:42:00,
2013-10-17 15:12:00,68.0,55.0,29.59,SW,217,1.0,1.0,63,0.00,,,0.00,,2013-10-17 19:12:00,
2013-10-17 15:22:00,68.0,55.0,29.59,SW,217,1.0,1.0,63,0.00,,,0.00,,2013-10-17 19:22:00,
2013-10-17 15:42:00,67.0,53.0,29.59,SSW,199,0.0,1.0,61,0.00,,,0.00,,2013-10-17 19:42:00,
2013-10-17 15:53:00,67.0,53.0,29.59,SSW,199,0.0,1.0,61,0.00,,,0.00,,2013-10-17 19:53:00,
2013-10-17 16:22:00,69.0,49.0,29.59,WSW,240,2.0,7.0,49,0.00,,,0.00,,2013-10-17 20:22:00,
2013-10-17 16:42:00,69.0,49.0,29.59,WSW,240,2.0,7.0,49,0.00,,,0.00,,2013-10-17 20:42:00,
2013-10-17 16:52:00,71.0,53.0,29.59,SW,234,0.0,0.0,53,0.00,,,0.00,,2013-10-17 20:52:00,
2013-10-17 17:02:00,71.0,53.0,29.59,SW,234,0.0,0.0,53,0.00,,,0.00,,2013-10-17 21:02:00,
2013-10-17 17:12:00,71.0,53.0,29.59,SW,234,0.0,0.0,53,0.00,,,0.00,,2013-10-17 21:12:00,
2013-10-17 17:22:00,71.0,53.0,29.59,SW,234,0.0,0.0,53,0.00,,,0.00,,2013-10-17 21:22:00,
2013-10-17 18:43:00,56.0,50.0,29.61,SW,236,0.0,0.0,80,0.00,,,0.00,,2013-10-17 22:43:00,
2013-10-17 18:53:00,55.0,51.0,29.61,SW,236,0.0,0.0,85,0.00,,,0.00,,2013-10-17 22:53:00,
2013-10-17 19:03:00,55.0,51.0,29.61,SW,236,0.0,0.0,85,0.00,,,0.00,,2013-10-17 23:03:00,
2013-10-17 19:13:00,55.0,51.0,29.61,SW,236,0.0,0.0,85,0.00,,,0.00,,2013-10-17 23:13:00,
2013-10-17 19:22:00,55.0,51.0,29.61,SW,236,0.0,0.0,85,0.00,,,0.00,,2013-10-17 23:22:00,
2013-10-17 19:43:00,52.0,48.0,29.62,SW,236,0.0,0.0,86,0.00,,,0.00,,2013-10-17 23:43:00,
2013-10-17 19:53:00,52.0,48.0,29.62,SW,236,0.0,0.0,86,0.00,,,0.00,,2013-10-17 23:53:00,
2013-10-17 20:02:00,52.0,48.0,29.62,SW,236,0.0,0.0,86,0.00,,,0.00,,2013-10-18 00:02:00,
2013-10-17 20:12:00,52.0,48.0,29.62,SW,236,0.0,0.0,86,0.00,,,0.00,,2013-10-18 00:12:00,